Powrót do katalogu

FENGYUN 1C DEB

LostSSO
NORAD 31316·DEBRIS·🇨🇳 China

Wystrzelony May 10, 1999 z Taiyuan Satellite Launch Center

Loading…

Następne Przeloty (najbliższe 24 godziny)

TLE

NieaktualneSource: Space-Track

Epoka: Oct 25, 2022, 22:59 UTC

1 31316U 99025BPU 22298.95822317  .00002417  00000-0  12614-2 0  9999
2 31316  98.9114   2.4896 0116358 264.2663  94.5232 14.12017324800637

Śledź FENGYUN 1C DEB w czasie rzeczywistym z AllMySat

Download on the App Store